"read_dt","SO2 (ppb)","flags","PMT voltage (V)","lamp voltage (V)","lamp intensity (Hz)","internal temp (C)","react chamber temp (C)","sample flow (l/min)","pres (mmHg)","SO2 bkg (ppb)","SO2 coefficient"
2014-12-26 00:00:00,1876E-3,5C000000,-0724,0837,12092,027.4,045.4,0.449,732.0,01.19,0.508
2014-12-26 00:01:00,1827E-3,5C000000,-0724,0837,12176,027.5,045.4,0.449,732.0,01.19,0.508
2014-12-26 00:02:00,1924E-3,5C000000,-0724,0836,12034,027.5,045.4,0.449,732.0,01.19,0.508
2014-12-26 00:03:00,2070E-3,5C000000,-0724,0836,12093,027.5,045.4,0.449,732.0,01.19,0.508
2014-12-26 00:04:00,1875E-3,5C000000,-0724,0836,12073,027.4,045.4,0.449,732.0,01.19,0.508
2014-12-26 00:05:00,1991E-3,5C000000,-0724,0837,12173,027.5,045.4,0.449,732.0,01.19,0.508
2014-12-26 00:06:00,1895E-3,5C000000,-0724,0836,12044,027.5,045.4,0.449,732.1,01.19,0.508
2014-12-26 00:07:00,2069E-3,5C000000,-0724,0836,12157,027.4,045.4,0.449,732.1,01.19,0.508
2014-12-26 00:08:00,1989E-3,5C000000,-0724,0837,12216,027.4,045.4,0.449,732.1,01.19,0.508
2014-12-26 00:09:00,1982E-3,5C000000,-0724,0837,12280,027.4,045.4,0.449,732.1,01.19,0.508
2014-12-26 00:10:00,2012E-3,5C000000,-0724,0835,12245,027.4,045.4,0.449,732.1,01.19,0.508
2014-12-26 00:11:00,2020E-3,5C000000,-0724,0837,12159,027.4,045.4,0.449,732.1,01.19,0.508
2014-12-26 00:12:00,1924E-3,5C000000,-0724,0837,12112,027.4,045.4,0.449,732.1,01.19,0.508
2014-12-26 00:13:00,1962E-3,5C000000,-0724,0837,12148,027.4,045.4,0.449,732.1,01.19,0.508
2014-12-26 00:14:00,1905E-3,5C000000,-0724,0838,12177,027.4,045.4,0.449,732.1,01.19,0.508
2014-12-26 00:15:00,2055E-3,5C000000,-0724,0837,12060,027.4,045.4,0.449,732.1,01.19,0.508
2014-12-26 00:16:00,2085E-3,5C000000,-0724,0837,12192,027.5,045.4,0.449,732.1,01.19,0.508
2014-12-26 00:17:00,2019E-3,5C000000,-0724,0836,12232,027.5,045.4,0.449,732.1,01.19,0.508
2014-12-26 00:18:00,2059E-3,5C000000,-0724,0836,12019,027.5,045.4,0.449,732.1,01.19,0.508
2014-12-26 00:19:00,1836E-3,5C000000,-0724,0836,12234,027.4,045.4,0.449,732.1,01.19,0.508
2014-12-26 00:20:00,1911E-3,5C000000,-0724,0838,12182,027.5,045.4,0.449,732.2,01.19,0.508
2014-12-26 00:21:00,2024E-3,5C000000,-0724,0837,12274,027.5,045.4,0.449,732.2,01.19,0.508
2014-12-26 00:22:00,1935E-3,5C000000,-0724,0836,12133,027.5,045.4,0.449,732.2,01.19,0.508
2014-12-26 00:23:00,1958E-3,5C000000,-0724,0837,12069,027.5,045.4,0.449,732.2,01.19,0.508
2014-12-26 00:24:00,2000E-3,5C000000,-0724,0836,12301,027.5,045.4,0.450,732.2,01.19,0.508
2014-12-26 00:25:00,1962E-3,5C000000,-0724,0837,12096,027.5,045.4,0.449,732.3,01.19,0.508
2014-12-26 00:26:00,1986E-3,5C000000,-0724,0837,12081,027.5,045.4,0.449,732.2,01.19,0.508
2014-12-26 00:27:00,2012E-3,5C000000,-0724,0836,12140,027.5,045.4,0.449,732.2,01.19,0.508
2014-12-26 00:28:00,1990E-3,5C000000,-0724,0837,12034,027.5,045.4,0.449,732.2,01.19,0.508
2014-12-26 00:29:00,2017E-3,5C000000,-0724,0837,11939,027.5,045.4,0.449,732.3,01.19,0.508
2014-12-26 00:30:00,2070E-3,5C000000,-0724,0836,12060,027.5,045.4,0.449,732.2,01.19,0.508
2014-12-26 00:31:00,1999E-3,5C000000,-0724,0836,12034,027.4,045.4,0.450,732.2,01.19,0.508
2014-12-26 00:32:00,2037E-3,5C000000,-0724,0836,12127,027.5,045.4,0.449,732.2,01.19,0.508
2014-12-26 00:33:00,1881E-3,5C000000,-0724,0837,12177,027.5,045.4,0.449,732.2,01.19,0.508
2014-12-26 00:34:00,1948E-3,5C000000,-0724,0836,12187,027.5,045.4,0.450,732.2,01.19,0.508
2014-12-26 00:35:00,2027E-3,5C000000,-0724,0837,12233,027.5,045.4,0.449,732.2,01.19,0.508
2014-12-26 00:36:00,1996E-3,5C000000,-0724,0837,12144,027.5,045.4,0.449,732.3,01.19,0.508
2014-12-26 00:37:00,2112E-3,5C000000,-0724,0837,12245,027.5,045.4,0.449,732.3,01.19,0.508
2014-12-26 00:38:00,1900E-3,5C000000,-0724,0837,12149,027.4,045.4,0.450,732.3,01.19,0.508
2014-12-26 00:39:00,1981E-3,5C000000,-0724,0837,12218,027.4,045.4,0.449,732.3,01.19,0.508
2014-12-26 00:40:00,2005E-3,5C000000,-0724,0837,12181,027.4,045.4,0.449,732.4,01.19,0.508
2014-12-26 00:41:00,1927E-3,5C000000,-0724,0838,12094,027.5,045.4,0.450,732.4,01.19,0.508
2014-12-26 00:42:00,2054E-3,5C000000,-0724,0837,12224,027.5,045.4,0.449,732.4,01.19,0.508
2014-12-26 00:43:00,2033E-3,5C000000,-0724,0836,12162,027.5,045.4,0.449,732.4,01.19,0.508
2014-12-26 00:44:00,1965E-3,5C000000,-0724,0837,11984,027.5,045.4,0.449,732.4,01.19,0.508
2014-12-26 00:45:00,2062E-3,5C000000,-0724,0837,11972,027.4,045.4,0.450,732.4,01.19,0.508
2014-12-26 00:46:00,2023E-3,5C000000,-0724,0838,12084,027.5,045.4,0.449,732.3,01.19,0.508
2014-12-26 00:47:00,2060E-3,5C000000,-0724,0836,12199,027.4,045.4,0.449,732.3,01.19,0.508
2014-12-26 00:48:00,1877E-3,5C000000,-0724,0837,12154,027.4,045.4,0.450,732.3,01.19,0.508
2014-12-26 00:49:00,2066E-3,5C000000,-0724,0837,12078,027.4,045.4,0.450,732.3,01.19,0.508
2014-12-26 00:50:00,1921E-3,5C000000,-0724,0836,12121,027.3,045.4,0.450,732.3,01.19,0.508
2014-12-26 00:51:00,1802E-3,5C000000,-0724,0836,12052,026.8,045.4,0.450,732.4,01.19,0.508
2014-12-26 00:52:00,2009E-3,5C000000,-0724,0835,12181,026.5,045.4,0.450,732.4,01.19,0.508
2014-12-26 00:53:00,1954E-3,5C000000,-0724,0836,12081,026.2,045.4,0.451,732.4,01.19,0.508
2014-12-26 00:54:00,1987E-3,5C000000,-0724,0836,12057,026.0,045.4,0.451,732.5,01.19,0.508
2014-12-26 00:55:00,1952E-3,5C000000,-0724,0836,12245,025.8,045.4,0.451,732.4,01.19,0.508
2014-12-26 00:56:00,2096E-3,5C000000,-0724,0835,12048,025.6,045.3,0.452,732.4,01.19,0.508
2014-12-26 00:57:00,2093E-3,5C000000,-0724,0835,12109,025.4,045.3,0.452,732.4,01.19,0.508
2014-12-26 00:58:00,1983E-3,5C000000,-0724,0836,12124,025.2,045.3,0.452,732.4,01.19,0.508
2014-12-26 00:59:00,1976E-3,5C000000,-0724,0835,12233,025.1,045.4,0.452,732.4,01.19,0.508
2014-12-26 01:00:00,1973E-3,5C000000,-0724,0835,12070,024.9,045.3,0.453,732.4,01.19,0.508
2014-12-26 01:01:00,2054E-3,5C000000,-0724,0835,12115,024.8,045.4,0.454,732.4,01.19,0.508
2014-12-26 01:02:00,1966E-3,5C000000,-0724,0836,12285,024.6,045.4,0.453,732.4,01.19,0.508
2014-12-26 01:03:00,1987E-3,5C000000,-0724,0836,12086,024.5,045.3,0.454,732.4,01.19,0.508
2014-12-26 01:04:00,2046E-3,5C000000,-0724,0835,12128,024.4,045.3,0.454,732.5,01.19,0.508
2014-12-26 01:05:00,1903E-3,5C000000,-0724,0836,12151,024.3,045.3,0.454,732.4,01.19,0.508
2014-12-26 01:06:00,1938E-3,5C000000,-0724,0836,12127,024.1,045.3,0.454,732.5,01.19,0.508
2014-12-26 01:07:00,2037E-3,5C000000,-0724,0835,12192,024.0,045.3,0.455,732.5,01.19,0.508
2014-12-26 01:08:00,1986E-3,5C000000,-0724,0835,12205,024.0,045.3,0.455,732.5,01.19,0.508
2014-12-26 01:09:00,2033E-3,5C000000,-0724,0835,12249,023.9,045.3,0.455,732.5,01.19,0.508
2014-12-26 01:10:00,2130E-3,5C000000,-0724,0835,12268,023.8,045.3,0.455,732.5,01.19,0.508
2014-12-26 01:11:00,1892E-3,5C000000,-0724,0835,12114,023.7,045.3,0.455,732.6,01.19,0.508
2014-12-26 01:12:00,2011E-3,5C000000,-0724,0836,12138,023.7,045.3,0.455,732.6,01.19,0.508
2014-12-26 01:13:00,1949E-3,5C000000,-0724,0835,12125,023.6,045.3,0.456,732.6,01.19,0.508
2014-12-26 01:14:00,1971E-3,5C000000,-0724,0835,12252,023.7,045.3,0.455,732.6,01.19,0.508
2014-12-26 01:15:00,1966E-3,5C000000,-0724,0835,12035,024.1,045.3,0.455,732.6,01.19,0.508
2014-12-26 01:16:00,1935E-3,5C000000,-0724,0836,12142,024.3,045.3,0.455,732.5,01.19,0.508
2014-12-26 01:17:00,2147E-3,5C000000,-0724,0836,12239,024.5,045.3,0.455,732.5,01.19,0.508
2014-12-26 01:18:00,1983E-3,5C000000,-0724,0836,12230,024.7,045.4,0.455,732.6,01.19,0.508
2014-12-26 01:19:00,2003E-3,5C000000,-0724,0836,12148,024.9,045.4,0.454,732.6,01.19,0.508
2014-12-26 01:20:00,2063E-3,5C000000,-0724,0835,12125,025.1,045.4,0.454,732.6,01.19,0.508
2014-12-26 01:21:00,1973E-3,5C000000,-0724,0837,12237,025.3,045.4,0.454,732.7,01.19,0.508
2014-12-26 01:22:00,1937E-3,5C000000,-0724,0835,12145,025.4,045.4,0.453,732.6,01.19,0.508
2014-12-26 01:23:00,2088E-3,5C000000,-0724,0836,12236,025.6,045.4,0.453,732.6,01.19,0.508
2014-12-26 01:24:00,1957E-3,5C000000,-0724,0835,12137,025.8,045.4,0.453,732.6,01.19,0.508
2014-12-26 01:25:00,2031E-3,5C000000,-0724,0836,12135,025.9,045.4,0.452,732.6,01.19,0.508
2014-12-26 01:26:00,1935E-3,5C000000,-0724,0836,12125,026.1,045.4,0.452,732.6,01.19,0.508
2014-12-26 01:27:00,2020E-3,5C000000,-0724,0836,12162,026.2,045.4,0.452,732.6,01.19,0.508
2014-12-26 01:28:00,2005E-3,5C000000,-0724,0836,12193,026.4,045.4,0.452,732.6,01.19,0.508
2014-12-26 01:29:00,2088E-3,5C000000,-0724,0836,12109,026.5,045.4,0.452,732.6,01.19,0.508
2014-12-26 01:30:00,1942E-3,5C000000,-0724,0837,12046,026.6,045.4,0.451,732.5,01.19,0.508
2014-12-26 01:31:00,1948E-3,5C000000,-0724,0836,12094,026.8,045.4,0.451,732.5,01.19,0.508
2014-12-26 01:32:00,1875E-3,5C000000,-0724,0836,12165,026.9,045.4,0.451,732.5,01.19,0.508
2014-12-26 01:33:00,1961E-3,5C000000,-0724,0836,12028,027.0,045.4,0.451,732.5,01.19,0.508
2014-12-26 01:34:00,2000E-3,5C000000,-0724,0837,12087,027.1,045.4,0.450,732.6,01.19,0.508
2014-12-26 01:35:00,2104E-3,5C000000,-0724,0836,12011,027.2,045.4,0.451,732.4,01.19,0.508
2014-12-26 01:36:00,1949E-3,5C000000,-0724,0837,12048,027.3,045.4,0.451,732.5,01.19,0.508
2014-12-26 01:37:00,1900E-3,5C000000,-0724,0837,12158,027.4,045.4,0.450,732.4,01.19,0.508
2014-12-26 01:38:00,1980E-3,5C000000,-0724,0837,12166,027.5,045.4,0.450,732.4,01.19,0.508
2014-12-26 01:39:00,1887E-3,5C000000,-0724,0837,12132,027.6,045.4,0.450,732.4,01.19,0.508
2014-12-26 01:40:00,1975E-3,5C000000,-0724,0836,12127,027.7,045.4,0.450,732.4,01.19,0.508
2014-12-26 01:41:00,2039E-3,5C000000,-0724,0837,12111,027.8,045.4,0.449,732.4,01.19,0.508
2014-12-26 01:42:00,1812E-3,5C000000,-0724,0836,12207,027.9,045.4,0.450,732.5,01.19,0.508
2014-12-26 01:43:00,1878E-3,5C000000,-0724,0837,12045,027.9,045.4,0.449,732.5,01.19,0.508
2014-12-26 01:44:00,1949E-3,5C000000,-0724,0837,12074,028.0,045.4,0.450,732.5,01.19,0.508
2014-12-26 01:45:00,1978E-3,5C000000,-0724,0836,12106,028.1,045.4,0.449,732.5,01.19,0.508
2014-12-26 01:46:00,1973E-3,5C000000,-0724,0837,12134,028.2,045.4,0.449,732.6,01.19,0.508
2014-12-26 01:47:00,2023E-3,5C000000,-0724,0837,12103,028.3,045.5,0.449,732.5,01.19,0.508
2014-12-26 01:48:00,1919E-3,5C000000,-0724,0837,12059,028.3,045.4,0.449,732.5,01.19,0.508
2014-12-26 01:49:00,1905E-3,5C000000,-0724,0837,12217,028.4,045.4,0.448,732.5,01.19,0.508
2014-12-26 01:50:00,2062E-3,5C000000,-0724,0837,12158,028.4,045.4,0.449,732.5,01.19,0.508
2014-12-26 01:51:00,1935E-3,5C000000,-0724,0837,12158,028.5,045.5,0.448,732.5,01.19,0.508
2014-12-26 01:52:00,1958E-3,5C000000,-0724,0838,12140,028.6,045.4,0.448,732.5,01.19,0.508
2014-12-26 01:53:00,2039E-3,5C000000,-0724,0837,12194,028.6,045.4,0.449,732.4,01.19,0.508
2014-12-26 01:54:00,1996E-3,5C000000,-0724,0837,12077,028.7,045.5,0.449,732.4,01.19,0.508
2014-12-26 01:55:00,2004E-3,5C000000,-0724,0837,12089,028.7,045.5,0.448,732.3,01.19,0.508
2014-12-26 01:56:00,1943E-3,5C000000,-0724,0837,12028,028.8,045.5,0.448,732.2,01.19,0.508
2014-12-26 01:57:00,2092E-3,5C000000,-0724,0837,12052,028.8,045.5,0.448,732.5,01.19,0.508
2014-12-26 01:58:00,1946E-3,5C000000,-0724,0837,12163,028.9,045.4,0.448,732.4,01.19,0.508
2014-12-26 01:59:00,2159E-3,5C000000,-0724,0837,12135,028.9,045.5,0.448,732.6,01.19,0.508
2014-12-26 02:00:00,1858E-3,5C000000,-0724,0837,12215,028.9,045.5,0.448,732.6,01.19,0.508
2014-12-26 02:01:00,1960E-3,5C000000,-0724,0837,12173,028.9,045.5,0.448,732.6,01.19,0.508
2014-12-26 02:02:00,2129E-3,5C000000,-0724,0836,12146,028.9,045.5,0.448,732.6,01.19,0.508
2014-12-26 02:03:00,2057E-3,5C000000,-0724,0838,12288,028.9,045.5,0.448,732.6,01.19,0.508
2014-12-26 02:04:00,2111E-3,5C000000,-0724,0838,12176,028.8,045.4,0.448,732.5,01.19,0.508
2014-12-26 02:05:00,1998E-3,5C000000,-0724,0837,12079,028.7,045.5,0.448,732.7,01.19,0.508
2014-12-26 02:06:00,2068E-3,5C000000,-0724,0836,12254,028.7,045.4,0.448,732.7,01.19,0.508
2014-12-26 02:07:00,2030E-3,5C000000,-0724,0837,12106,028.7,045.4,0.448,732.7,01.19,0.508
2014-12-26 02:08:00,1905E-3,5C000000,-0724,0837,11973,028.6,045.5,0.448,732.7,01.19,0.508
2014-12-26 02:09:00,1838E-3,5C000000,-0724,0838,12082,028.6,045.5,0.448,732.7,01.19,0.508
2014-12-26 02:10:00,1976E-3,5C000000,-0724,0837,12021,028.6,045.5,0.448,732.7,01.19,0.508
2014-12-26 02:11:00,1920E-3,5C000000,-0724,0837,12004,028.5,045.4,0.448,732.7,01.19,0.508
2014-12-26 02:12:00,1993E-3,5C000000,-0724,0836,12165,028.5,045.5,0.448,732.7,01.19,0.508
2014-12-26 02:13:00,1905E-3,5C000000,-0724,0836,12137,028.4,045.4,0.448,732.6,01.19,0.508
2014-12-26 02:14:00,2070E-3,5C000000,-0724,0837,12118,028.4,045.5,0.449,732.6,01.19,0.508
2014-12-26 02:15:00,1954E-3,5C000000,-0724,0837,12164,028.4,045.4,0.449,732.6,01.19,0.508
2014-12-26 02:16:00,1966E-3,5C000000,-0724,0837,12173,028.4,045.5,0.449,732.6,01.19,0.508
2014-12-26 02:17:00,2055E-3,5C000000,-0724,0838,12261,028.4,045.4,0.448,732.6,01.19,0.508
2014-12-26 02:18:00,2081E-3,5C000000,-0724,0836,12384,028.4,045.4,0.448,732.6,01.19,0.508
2014-12-26 02:19:00,1937E-3,5C000000,-0724,0837,12172,028.4,045.4,0.448,732.5,01.19,0.508
2014-12-26 02:20:00,1909E-3,5C000000,-0724,0836,12092,028.3,045.5,0.448,732.5,01.19,0.508
2014-12-26 02:21:00,2043E-3,5C000000,-0724,0837,12081,028.3,045.5,0.448,732.5,01.19,0.508
2014-12-26 02:22:00,2055E-3,5C000000,-0724,0836,12094,028.3,045.5,0.449,732.6,01.19,0.508
2014-12-26 02:23:00,2066E-3,5C000000,-0724,0836,12153,028.3,045.5,0.449,732.5,01.19,0.508
2014-12-26 02:24:00,2028E-3,5C000000,-0724,0837,12209,028.2,045.5,0.449,732.5,01.19,0.508
2014-12-26 02:25:00,1872E-3,5C000000,-0724,0836,12075,028.3,045.5,0.449,732.5,01.19,0.508
2014-12-26 02:26:00,2087E-3,5C000000,-0724,0837,12335,028.2,045.4,0.449,732.5,01.19,0.508
2014-12-26 02:27:00,2128E-3,5C000000,-0724,0837,12133,028.2,045.5,0.449,732.6,01.19,0.508
2014-12-26 02:28:00,1983E-3,5C000000,-0724,0836,12054,028.2,045.5,0.449,732.6,01.19,0.508
2014-12-26 02:29:00,2073E-3,5C000000,-0724,0837,12129,028.2,045.4,0.449,732.5,01.19,0.508
2014-12-26 02:30:00,1817E-3,5C000000,-0724,0837,12029,028.2,045.4,0.449,732.5,01.19,0.508
2014-12-26 02:31:00,2019E-3,5C000000,-0724,0837,12213,028.2,045.5,0.449,732.6,01.19,0.508
2014-12-26 02:32:00,1841E-3,5C000000,-0724,0837,12205,028.2,045.4,0.449,732.6,01.19,0.508
2014-12-26 02:33:00,1964E-3,5C000000,-0724,0837,12198,028.1,045.5,0.449,732.7,01.19,0.508
2014-12-26 02:34:00,1878E-3,5C000000,-0724,0837,12038,028.1,045.4,0.449,732.7,01.19,0.508
2014-12-26 02:35:00,2002E-3,5C000000,-0724,0837,12223,028.2,045.4,0.449,732.7,01.19,0.508
2014-12-26 02:36:00,2048E-3,5C000000,-0724,0836,12068,028.1,045.4,0.449,732.6,01.19,0.508
2014-12-26 02:37:00,1976E-3,5C000000,-0724,0837,12153,028.1,045.4,0.449,732.6,01.19,0.508
2014-12-26 02:38:00,2072E-3,5C000000,-0724,0837,12139,028.1,045.4,0.449,732.6,01.19,0.508
2014-12-26 02:39:00,1984E-3,5C000000,-0724,0837,12116,028.1,045.4,0.450,732.6,01.19,0.508
2014-12-26 02:40:00,1970E-3,5C000000,-0724,0837,12213,028.1,045.5,0.449,732.7,01.19,0.508
2014-12-26 02:41:00,1956E-3,5C000000,-0724,0836,12052,028.1,045.4,0.449,732.7,01.19,0.508
2014-12-26 02:42:00,2075E-3,5C000000,-0724,0836,12074,028.0,045.4,0.449,732.7,01.19,0.508
2014-12-26 02:43:00,1994E-3,5C000000,-0724,0836,12222,028.0,045.4,0.449,732.7,01.19,0.508
2014-12-26 02:44:00,2031E-3,5C000000,-0724,0836,12166,028.0,045.4,0.450,732.6,01.19,0.508
2014-12-26 02:45:00,2133E-3,5C000000,-0724,0836,12076,028.0,045.4,0.449,732.6,01.19,0.508
2014-12-26 02:46:00,2012E-3,5C000000,-0724,0836,12109,028.0,045.4,0.449,732.6,01.19,0.508
2014-12-26 02:47:00,1955E-3,5C000000,-0724,0837,12029,028.0,045.4,0.449,732.7,01.19,0.508
2014-12-26 02:48:00,1998E-3,5C000000,-0724,0836,12101,028.0,045.4,0.450,732.7,01.19,0.508
2014-12-26 02:49:00,2084E-3,5C000000,-0724,0836,12041,028.0,045.4,0.449,732.7,01.19,0.508
2014-12-26 02:50:00,2005E-3,5C000000,-0724,0836,12016,028.0,045.4,0.449,732.7,01.19,0.508
2014-12-26 02:51:00,2078E-3,5C000000,-0724,0837,12105,028.0,045.4,0.450,732.7,01.19,0.508
2014-12-26 02:52:00,1927E-3,5C000000,-0724,0837,11992,028.0,045.4,0.450,732.7,01.19,0.508
2014-12-26 02:53:00,1936E-3,5C000000,-0724,0836,12052,027.9,045.4,0.449,732.7,01.19,0.508
2014-12-26 02:54:00,2033E-3,5C000000,-0724,0837,12048,028.0,045.4,0.449,732.7,01.19,0.508
2014-12-26 02:55:00,1972E-3,5C000000,-0724,0837,12108,027.9,045.4,0.450,732.7,01.19,0.508
2014-12-26 02:56:00,2073E-3,5C000000,-0724,0837,12055,028.0,045.4,0.449,732.7,01.19,0.508
2014-12-26 02:57:00,2049E-3,5C000000,-0724,0837,12121,027.9,045.4,0.449,732.7,01.19,0.508
2014-12-26 02:58:00,2007E-3,5C000000,-0724,0837,12133,027.9,045.4,0.450,732.6,01.19,0.508
2014-12-26 02:59:00,2032E-3,5C000000,-0724,0837,12218,027.9,045.4,0.449,732.7,01.19,0.508
2014-12-26 03:00:00,2008E-3,5C000000,-0724,0837,12199,027.9,045.4,0.449,732.8,01.19,0.508
2014-12-26 03:01:00,1941E-3,5C000000,-0724,0837,12115,027.9,045.4,0.450,732.8,01.19,0.508
2014-12-26 03:02:00,1965E-3,5C000000,-0724,0836,12102,027.9,045.4,0.450,732.8,01.19,0.508
2014-12-26 03:03:00,2080E-3,5C000000,-0724,0837,12144,027.9,045.4,0.449,732.8,01.19,0.508
2014-12-26 03:04:00,1996E-3,5C000000,-0724,0837,12158,027.9,045.4,0.450,732.7,01.19,0.508
2014-12-26 03:05:00,1943E-3,5C000000,-0724,0837,12226,027.9,045.4,0.450,732.7,01.19,0.508
2014-12-26 03:06:00,1898E-3,5C000000,-0724,0836,11953,027.9,045.4,0.449,732.7,01.19,0.508
2014-12-26 03:07:00,2128E-3,5C000000,-0724,0836,12150,027.9,045.4,0.450,732.7,01.19,0.508
2014-12-26 03:08:00,2012E-3,5C000000,-0724,0837,12095,027.9,045.4,0.450,732.7,01.19,0.508
2014-12-26 03:09:00,2011E-3,5C000000,-0724,0837,12190,027.9,045.5,0.449,732.8,01.19,0.508
2014-12-26 03:10:00,1988E-3,5C000000,-0724,0837,12131,027.9,045.4,0.450,732.7,01.19,0.508
2014-12-26 03:11:00,1854E-3,5C000000,-0724,0836,11963,027.8,045.5,0.450,732.8,01.19,0.508
2014-12-26 03:12:00,1920E-3,5C000000,-0724,0837,12133,027.8,045.4,0.450,732.8,01.19,0.508
2014-12-26 03:13:00,2017E-3,5C000000,-0724,0836,12235,027.8,045.4,0.449,732.7,01.19,0.508
2014-12-26 03:14:00,2160E-3,5C000000,-0724,0837,11983,027.8,045.4,0.450,732.6,01.19,0.508
2014-12-26 03:15:00,2019E-3,5C000000,-0724,0837,12031,027.8,045.4,0.450,732.8,01.19,0.508
2014-12-26 03:16:00,2020E-3,5C000000,-0724,0836,12093,027.8,045.4,0.449,732.6,01.19,0.508
2014-12-26 03:17:00,1933E-3,5C000000,-0724,0836,12165,027.8,045.4,0.450,732.7,01.19,0.508
2014-12-26 03:18:00,1990E-3,5C000000,-0724,0836,12073,027.8,045.4,0.450,732.7,01.19,0.508
2014-12-26 03:19:00,2074E-3,5C000000,-0724,0836,12232,027.8,045.4,0.449,732.8,01.19,0.508
2014-12-26 03:20:00,2058E-3,5C000000,-0724,0837,12056,027.8,045.4,0.450,732.8,01.19,0.508
2014-12-26 03:21:00,2054E-3,5C000000,-0724,0837,12141,027.8,045.4,0.450,732.9,01.19,0.508
2014-12-26 03:22:00,1998E-3,5C000000,-0724,0836,11947,027.8,045.4,0.449,732.9,01.19,0.508
2014-12-26 03:23:00,1870E-3,5C000000,-0724,0837,12082,027.8,045.4,0.450,733.0,01.19,0.508
2014-12-26 03:24:00,2040E-3,5C000000,-0724,0837,12197,027.8,045.4,0.450,732.9,01.19,0.508
2014-12-26 03:25:00,2100E-3,5C000000,-0724,0837,12149,027.9,045.4,0.449,733.0,01.19,0.508
2014-12-26 03:26:00,2043E-3,5C000000,-0724,0836,12126,027.9,045.4,0.450,733.0,01.19,0.508
2014-12-26 03:27:00,2020E-3,5C000000,-0724,0836,12153,027.9,045.4,0.450,732.9,01.19,0.508
2014-12-26 03:28:00,2164E-3,5C000000,-0724,0837,12068,027.9,045.4,0.450,732.9,01.19,0.508
2014-12-26 03:29:00,2029E-3,5C000000,-0724,0837,12161,027.9,045.4,0.450,732.8,01.19,0.508
2014-12-26 03:30:00,2030E-3,5C000000,-0724,0837,12261,027.9,045.4,0.449,732.9,01.19,0.508
2014-12-26 03:31:00,2186E-3,5C000000,-0724,0837,11998,027.9,045.4,0.450,733.0,01.19,0.508
2014-12-26 03:32:00,2032E-3,5C000000,-0724,0835,12053,027.9,045.4,0.450,732.9,01.19,0.508
2014-12-26 03:33:00,2113E-3,5C000000,-0724,0837,12120,027.9,045.4,0.449,732.9,01.19,0.508
2014-12-26 03:34:00,2098E-3,5C000000,-0724,0837,12160,027.9,045.5,0.450,732.9,01.19,0.508
2014-12-26 03:35:00,2098E-3,5C000000,-0724,0836,12123,027.9,045.4,0.450,733.0,01.19,0.508
2014-12-26 03:36:00,2144E-3,5C000000,-0724,0837,12249,027.9,045.4,0.449,733.0,01.19,0.508
2014-12-26 03:37:00,2022E-3,5C000000,-0724,0836,12185,027.9,045.4,0.450,733.1,01.19,0.508
2014-12-26 03:38:00,1950E-3,5C000000,-0724,0838,12002,027.9,045.4,0.450,733.1,01.19,0.508
2014-12-26 03:39:00,2054E-3,5C000000,-0724,0837,12247,027.8,045.4,0.449,733.1,01.19,0.508
2014-12-26 03:40:00,2017E-3,5C000000,-0724,0837,12005,027.9,045.4,0.450,733.0,01.19,0.508
2014-12-26 03:41:00,1962E-3,5C000000,-0724,0836,12179,027.9,045.4,0.450,733.1,01.19,0.508
2014-12-26 03:42:00,2006E-3,5C000000,-0724,0836,12174,027.9,045.4,0.449,733.0,01.19,0.508
2014-12-26 03:43:00,2000E-3,5C000000,-0724,0837,12133,027.9,045.4,0.449,733.0,01.19,0.508
2014-12-26 03:44:00,2145E-3,5C000000,-0724,0837,12198,027.8,045.4,0.450,733.0,01.19,0.508
2014-12-26 03:45:00,2030E-3,5C000000,-0724,0837,12391,027.8,045.4,0.450,732.9,01.19,0.508
2014-12-26 03:46:00,2073E-3,5C000000,-0724,0836,12248,027.9,045.4,0.449,733.1,01.19,0.508
2014-12-26 03:47:00,1926E-3,5C000000,-0724,0836,12082,027.9,045.4,0.450,733.1,01.19,0.508
2014-12-26 03:48:00,1982E-3,5C000000,-0724,0836,12277,027.9,045.4,0.450,733.0,01.19,0.508
2014-12-26 03:49:00,2039E-3,5C000000,-0724,0837,12024,027.9,045.5,0.449,733.0,01.19,0.508
2014-12-26 03:50:00,2132E-3,5C000000,-0724,0837,12026,027.9,045.4,0.449,733.0,01.19,0.508
2014-12-26 03:51:00,2088E-3,5C000000,-0724,0838,12129,027.9,045.4,0.450,733.0,01.19,0.508
2014-12-26 03:52:00,2159E-3,5C000000,-0724,0836,12182,027.9,045.4,0.449,733.1,01.19,0.508
2014-12-26 03:53:00,1947E-3,5C000000,-0724,0836,12161,028.0,045.4,0.449,733.1,01.19,0.508
2014-12-26 03:54:00,2153E-3,5C000000,-0724,0837,11972,028.0,045.4,0.450,733.2,01.19,0.508
2014-12-26 03:55:00,1927E-3,5C000000,-0724,0837,12210,028.0,045.4,0.450,733.3,01.19,0.508
2014-12-26 03:56:00,2040E-3,5C000000,-0724,0836,12149,028.0,045.4,0.449,733.4,01.19,0.508
2014-12-26 03:57:00,2053E-3,5C000000,-0724,0837,12047,028.0,045.4,0.449,733.2,01.19,0.508
2014-12-26 03:58:00,1933E-3,5C000000,-0724,0837,12194,027.9,045.4,0.450,733.4,01.19,0.508
2014-12-26 03:59:00,1962E-3,5C000000,-0724,0836,12154,028.0,045.4,0.450,733.4,01.19,0.508
2014-12-26 04:00:00,2113E-3,5C000000,-0724,0837,12096,028.0,045.4,0.449,733.5,01.19,0.508
2014-12-26 04:01:00,2136E-3,5C000000,-0724,0836,12094,028.0,045.4,0.450,733.5,01.19,0.508
2014-12-26 04:02:00,2052E-3,5C000000,-0724,0836,11978,027.9,045.4,0.450,733.5,01.19,0.508
2014-12-26 04:03:00,2122E-3,5C000000,-0724,0837,12190,027.9,045.5,0.450,733.5,01.19,0.508
2014-12-26 04:04:00,1997E-3,5C000000,-0724,0836,12166,027.9,045.4,0.449,733.5,01.19,0.508
2014-12-26 04:05:00,1998E-3,5C000000,-0724,0836,12139,027.9,045.4,0.450,733.5,01.19,0.508
2014-12-26 04:06:00,2088E-3,5C000000,-0724,0836,12091,027.9,045.4,0.450,733.5,01.19,0.508
2014-12-26 04:07:00,2040E-3,5C000000,-0724,0837,11882,027.9,045.4,0.450,733.5,01.19,0.508
2014-12-26 04:08:00,2064E-3,5C000000,-0724,0837,11958,027.9,045.4,0.450,733.5,01.19,0.508
2014-12-26 04:09:00,2014E-3,5C000000,-0724,0837,12227,027.9,045.4,0.450,733.5,01.19,0.508
2014-12-26 04:10:00,2104E-3,5C000000,-0724,0836,12129,027.9,045.4,0.450,733.5,01.19,0.508
2014-12-26 04:11:00,2008E-3,5C000000,-0724,0837,12237,027.9,045.4,0.450,733.5,01.19,0.508
2014-12-26 04:12:00,2080E-3,5C000000,-0724,0837,12274,027.9,045.4,0.449,733.5,01.19,0.508
2014-12-26 04:13:00,2052E-3,5C000000,-0724,0837,12144,028.0,045.4,0.450,733.6,01.19,0.508
2014-12-26 04:14:00,1962E-3,5C000000,-0724,0836,12263,027.9,045.4,0.450,733.6,01.19,0.508
2014-12-26 04:15:00,2172E-3,5C000000,-0724,0837,12170,027.9,045.4,0.450,733.5,01.19,0.508
2014-12-26 04:16:00,2095E-3,5C000000,-0724,0837,12058,027.9,045.4,0.450,733.6,01.19,0.508
2014-12-26 04:17:00,2069E-3,5C000000,-0724,0837,12113,027.9,045.4,0.450,733.5,01.19,0.508
2014-12-26 04:18:00,1940E-3,5C000000,-0724,0836,12138,027.9,045.4,0.450,733.6,01.19,0.508
2014-12-26 04:19:00,1977E-3,5C000000,-0724,0836,12180,027.9,045.4,0.450,733.6,01.19,0.508
2014-12-26 04:20:00,2103E-3,5C000000,-0724,0836,12186,027.9,045.5,0.450,733.5,01.19,0.508